| time (UTC) | temp F | wind direction | speed MPH | gust MPH | rain 1hr in | rain 24hr in | rain mn in | humidity % | barometer mb |
| 20260508130044 | 65 | 285 | 5.0 | 11.0 | 0.00 | 0.00 | 0.00 | 49 | 1016.7 |
| 20260508124542 | 65 | 276 | 4.0 | 10.0 | 0.00 | 0.00 | 0.00 | 52 | 1016.7 |
| 20260508123053 | 64 | 271 | 2.0 | 11.0 | 0.00 | 0.00 | 0.00 | 50 | 1016.7 |
| 20260508121550 | 64 | 262 | 6.0 | 13.0 | 0.00 | 0.00 | 0.00 | 50 | 1016.7 |
| 20260508120041 | 63 | 302 | 5.0 | 9.0 | 0.00 | 0.00 | 0.00 | 53 | 1016.7 |
| 20260508114540 | 64 | 337 | 3.0 | 11.0 | 0.00 | 0.00 | 0.00 | 50 | 1016.8 |
| 20260508113041 | 66 | 319 | 7.0 | 11.0 | 0.00 | 0.00 | 0.00 | 49 | 1016.8 |
| 20260508111537 | 65 | 317 | 9.0 | 15.0 | 0.00 | 0.00 | 0.00 | 49 | 1017.1 |
| 20260508110043 | 64 | 329 | 6.0 | 12.0 | 0.00 | 0.00 | 0.00 | 50 | 1016.9 |
| 20260508104534 | 65 | 302 | 6.0 | 12.0 | 0.00 | 0.00 | 0.00 | 54 | 1017.1 |
| 20260508103034 | 65 | 323 | 5.0 | 13.0 | 0.00 | 0.00 | 0.00 | 51 | 1017.0 |
| 20260508101533 | 65 | 268 | 4.0 | 14.0 | 0.00 | 0.00 | 0.00 | 56 | 1017.1 |
| 20260508100031 | 64 | 283 | 6.0 | 14.0 | 0.00 | 0.00 | 0.00 | 56 | 1017.3 |
| 20260508094527 | 64 | 302 | 7.0 | 14.0 | 0.00 | 0.00 | 0.00 | 57 | 1017.2 |
| 20260508093026 | 62 | 322 | 5.0 | 13.0 | 0.00 | 0.00 | 0.00 | 63 | 1017.3 |
| 20260508091527 | 62 | 1 | 6.0 | 12.0 | 0.00 | 0.00 | 0.00 | 60 | 1017.3 |
| 20260508090024 | 62 | 287 | 6.0 | 12.0 | 0.00 | 0.00 | 0.00 | 59 | 1017.3 |
| 20260508084520 | 62 | 274 | 5.0 | 11.0 | 0.00 | 0.00 | 0.00 | 62 | 1017.5 |
| 20260508083016 | 61 | 315 | 7.0 | 11.0 | 0.00 | 0.00 | 0.00 | 65 | 1017.6 |
| 20260508081513 | 60 | 229 | 5.0 | 11.0 | 0.00 | 0.00 | 0.00 | 67 | 1017.4 |
| 20260508080009 | 59 | 314 | 4.0 | 10.0 | 0.00 | 0.00 | 0.00 | 68 | 1017.4 |
| 20260508074504 | 58 | 278 | 3.0 | 11.0 | 0.00 | 0.00 | 0.00 | 71 | 1017.3 |
| 20260508073000 | 57 | 297 | 4.0 | 11.0 | 0.00 | 0.00 | 0.00 | 72 | 1017.3 |
| 20260508071559 | 56 | 312 | 8.0 | 12.0 | 0.00 | 0.00 | 0.00 | 74 | 1017.2 |
| 20260508070101 | 55 | 285 | 7.0 | 13.0 | 0.00 | 0.00 | 0.00 | 75 | 1017.2 |
| 20260508064548 | 54 | 267 | 7.0 | 10.0 | 0.00 | 0.00 | 0.00 | 80 | 1017.2 |
| 20260508063044 | 52 | 271 | 6.0 | 10.0 | 0.00 | 0.00 | 0.00 | 82 | 1017.1 |
| 20260508061542 | 51 | 268 | 5.0 | 9.0 | 0.00 | 0.00 | 0.00 | 85 | 1017.0 |
| 20260508060038 | 49 | 272 | 5.0 | 8.0 | 0.00 | 0.00 | 0.00 | 88 | 1017.0 |
| 20260508054542 | 48 | 274 | 3.0 | 8.0 | 0.00 | 0.00 | 0.00 | 90 | 1017.0 |
| 20260508053036 | 47 | 239 | 2.0 | 4.0 | 0.00 | 0.00 | 0.00 | 91 | 1017.0 |
| 20260508051535 | 46 | 239 | 2.0 | 4.0 | 0.00 | 0.00 | 0.00 | 90 | 1016.9 |
| 20260508050035 | 45 | 239 | 2.0 | 4.0 | 0.00 | 0.00 | 0.00 | 89 | 1016.9 |
| 20260508044534 | 46 | 239 | 1.0 | 4.0 | 0.00 | 0.00 | 0.00 | 89 | 1016.8 |
| 20260508043031 | 46 | 230 | 3.0 | 4.0 | 0.00 | 0.00 | 0.00 | 88 | 1016.7 |
| 20260508041528 | 46 | 229 | 0.0 | 3.0 | 0.00 | 0.00 | 0.00 | 88 | 1016.7 |
| 20260508040027 | 47 | 229 | 0.0 | 0.0 | 0.00 | 0.00 | 0.00 | 88 | 1016.6 |
| 20260508034534 | 47 | 229 | 0.0 | 3.0 | 0.00 | 0.00 | 0.00 | 89 | 1016.6 |
| 20260508033026 | 47 | 229 | 0.0 | 0.0 | 0.00 | 0.00 | 0.00 | 88 | 1016.5 |
| 20260508031522 | 47 | 227 | 0.0 | 0.0 | 0.00 | 0.00 | 0.00 | 89 | 1016.6 |
| 20260508030021 | 47 | 227 | 0.0 | 0.0 | 0.00 | 0.00 | 0.00 | 89 | 1016.6 |
| 20260508024519 | 47 | 227 | 2.0 | 4.0 | 0.00 | 0.00 | 0.00 | 89 | 1016.6 |
| 20260508023018 | 47 | 227 | 2.0 | 4.0 | 0.00 | 0.00 | 0.00 | 89 | 1016.6 |
| 20260508021517 | 47 | 210 | 2.0 | 4.0 | 0.00 | 0.00 | 0.00 | 89 | 1016.7 |
| 20260508020016 | 47 | 210 | 0.0 | 4.0 | 0.00 | 0.00 | 0.00 | 89 | 1016.6 |
| 20260508014515 | 47 | 191 | 2.0 | 4.0 | 0.00 | 0.00 | 0.00 | 89 | 1016.8 |
| 20260508013012 | 47 | 186 | 2.0 | 3.0 | 0.00 | 0.00 | 0.00 | 89 | 1016.7 |
| 20260508011512 | 48 | 186 | 0.0 | 1.0 | 0.00 | 0.00 | 0.00 | 89 | 1016.7 |
| 20260508010010 | 48 | 186 | 0.0 | 0.0 | 0.00 | 0.00 | 0.00 | 89 | 1016.8 |
| 20260508004508 | 48 | 186 | 0.0 | 3.0 | 0.00 | 0.00 | 0.00 | 88 | 1016.8 |
| 20260508003008 | 48 | 186 | 0.0 | 1.0 | 0.00 | 0.00 | 0.00 | 88 | 1016.7 |
| 20260508001509 | 48 | 186 | 1.0 | 3.0 | 0.00 | 0.00 | 0.00 | 88 | 1016.8 |
| 20260508000008 | 48 | 186 | 2.0 | 4.0 | 0.00 | 0.00 | 0.00 | 87 | 1016.9 |
| 20260507234513 | 49 | 186 | 0.0 | 2.0 | 0.00 | 0.00 | 0.00 | 87 | 1016.9 |
| 20260507233003 | 49 | 186 | 1.0 | 2.0 | 0.00 | 0.00 | 0.00 | 87 | 1016.9 |
| 20260507231502 | 49 | 186 | 0.0 | 3.0 | 0.00 | 0.00 | 0.00 | 86 | 1017.0 |
| 20260507230001 | 49 | 186 | 2.0 | 3.0 | 0.00 | 0.00 | 0.00 | 86 | 1016.9 |
| 20260507224603 | 49 | 186 | 1.0 | 3.0 | 0.00 | 0.00 | 0.00 | 86 | 1017.0 |
| 20260507223112 | 49 | 186 | 1.0 | 3.0 | 0.00 | 0.00 | 0.00 | 86 | 1016.9 |
| 20260507221557 | 49 | 186 | 1.0 | 3.0 | 0.00 | 0.00 | 0.00 | 86 | 1017.2 |
| 20260507220055 | 49 | 186 | 2.0 | 3.0 | 0.00 | 0.00 | 0.00 | 86 | 1017.1 |
| 20260507214559 | 49 | 186 | 1.0 | 3.0 | 0.00 | 0.00 | 0.00 | 86 | 1017.0 |
| 20260507213055 | 50 | 186 | 0.0 | 0.0 | 0.00 | 0.00 | 0.00 | 86 | 1017.1 |
| 20260507211554 | 50 | 186 | 0.0 | 2.0 | 0.00 | 0.00 | 0.00 | 86 | 1017.1 |
| 20260507210053 | 50 | 186 | 0.0 | 1.0 | 0.00 | 0.00 | 0.00 | 85 | 1017.0 |
| 20260507204552 | 50 | 186 | 1.0 | 3.0 | 0.00 | 0.00 | 0.00 | 85 | 1017.0 |
| 20260507203100 | 50 | 186 | 1.0 | 2.0 | 0.00 | 0.00 | 0.00 | 84 | 1017.0 |
| 20260507201550 | 50 | 186 | 2.0 | 3.0 | 0.00 | 0.00 | 0.00 | 84 | 1016.8 |
| 20260507200052 | 51 | 186 | 0.0 | 0.0 | 0.00 | 0.00 | 0.00 | 85 | 1016.7 |
| 20260507194548 | 51 | 186 | 0.0 | 0.0 | 0.00 | 0.00 | 0.00 | 84 | 1016.7 |
| 20260507193053 | 51 | 186 | 0.0 | 0.0 | 0.00 | 0.00 | 0.00 | 82 | 1016.6 |
| 20260507191546 | 52 | 186 | 0.0 | 2.0 | 0.00 | 0.00 | 0.00 | 81 | 1016.4 |
| 20260507190046 | 52 | 186 | 0.0 | 3.0 | 0.00 | 0.00 | 0.00 | 80 | 1016.4 |
| 20260507184545 | 52 | 186 | 2.0 | 4.0 | 0.00 | 0.00 | 0.00 | 79 | 1016.5 |
| 20260507183045 | 53 | 186 | 2.0 | 4.0 | 0.00 | 0.00 | 0.00 | 78 | 1016.5 |
| 20260507181544 | 53 | 186 | 1.0 | 5.0 | 0.00 | 0.00 | 0.00 | 78 | 1016.4 |
| 20260507180045 | 53 | 153 | 3.0 | 5.0 | 0.00 | 0.00 | 0.00 | 76 | 1016.4 |
| 20260507174550 | 54 | 145 | 3.0 | 4.0 | 0.00 | 0.00 | 0.00 | 75 | 1016.3 |
| 20260507173048 | 54 | 129 | 1.0 | 3.0 | 0.00 | 0.00 | 0.00 | 74 | 1016.3 |
| 20260507171603 | 54 | 125 | 1.0 | 3.0 | 0.00 | 0.00 | 0.00 | 73 | 1016.2 |
| 20260507170042 | 54 | 125 | 1.0 | 4.0 | 0.00 | 0.00 | 0.00 | 70 | 1016.1 |
| 20260507164558 | 55 | 104 | 1.0 | 3.0 | 0.00 | 0.00 | 0.00 | 73 | 1016.0 |
| 20260507163040 | 55 | 102 | 0.0 | 1.0 | 0.00 | 0.00 | 0.00 | 73 | 1016.1 |
| 20260507161544 | 54 | 102 | 0.0 | 0.0 | 0.00 | 0.00 | 0.00 | 73 | 1016.1 |
| 20260507160042 | 54 | 102 | 1.0 | 3.0 | 0.00 | 0.00 | 0.00 | 72 | 1016.1 |
| 20260507154539 | 55 | 102 | 0.0 | 2.0 | 0.00 | 0.00 | 0.00 | 71 | 1016.1 |
| 20260507153044 | 55 | 102 | 2.0 | 4.0 | 0.00 | 0.00 | 0.00 | 73 | 1016.1 |
| 20260507151541 | 55 | 102 | 1.0 | 4.0 | 0.00 | 0.00 | 0.00 | 72 | 1016.1 |
| 20260507150037 | 55 | 102 | 0.0 | 3.0 | 0.00 | 0.00 | 0.00 | 71 | 1016.2 |
| 20260507144536 | 55 | 102 | 1.0 | 4.0 | 0.00 | 0.00 | 0.00 | 69 | 1016.3 |
| 20260507143038 | 55 | 100 | 3.0 | 4.0 | 0.00 | 0.00 | 0.00 | 70 | 1016.1 |
| 20260507141533 | 55 | 98 | 2.0 | 4.0 | 0.00 | 0.00 | 0.00 | 71 | 1016.1 |
| 20260507140032 | 55 | 93 | 2.0 | 4.0 | 0.00 | 0.00 | 0.00 | 72 | 1016.2 |
| 20260507134542 | 55 | 83 | 3.0 | 4.0 | 0.00 | 0.00 | 0.00 | 71 | 1016.3 |
| 20260507133031 | 55 | 33 | 0.0 | 2.0 | 0.00 | 0.00 | 0.00 | 70 | 1016.2 |
| 20260507131536 | 55 | 13 | 0.0 | 0.0 | 0.00 | 0.00 | 0.00 | 70 | 1016.1 |